Location: Melque
(41.0517°N, 4.4694°W)
Time: 19:18:10
(UTC+00:00)

Meteor 1-20 Rocket - Pass Details

Date: 14 March 2026
Orbit: 817 x 891 km, 81.2° (Epoch: 14 April)

Event Time Altitude Azimuth Distance (km) Brightness Sun altitude
Rises 03:57:43 0° 8° (N) 3,458 7.8 -29.1°
Reaches altitude 10° 04:01:43 10° 36° (NE) 2,498 7.4 -28.4°
Maximum altitude 04:04:15 13° 63° (ENE) 2,271 7.3 -28.0°
Drops below altitude 10° 04:06:46 10° 90° (E) 2,468 7.4 -27.5°
Sets 04:10:39 0° 117° (ESE) 3,380 7.9 -26.9°
